FENGYUN 1C DEB

Satellite information

Favourite Embed

Satellite Type and Status

DEBRISIN ORBIT

Key statistics

Satellite FENGYUN 1C DEB at a glance.

Uptime

9664

Days in orbit

Revolutions

≈ 14.1

Per day

Orbit

SSO

Sun Synchronous Orbit

Inclination

98.6

Latest

Satellite identification and parameters

Extended collection of information and parameters for FENGYUN 1C DEB.

Object identification

Identified? True

Debris? True

Object name: FENGYUN 1C DEB

International designator: 1999-025DZM

Object number (NORAD): 36691

Object ID (CCSDS): 36691

Country: PEOPLES REPUBLIC OF CHINA (PRC)

Current information (Y/N): Y

RCS size: SMALL

Orbital parameters

Period: 102.379 minutes

Inclination: 98.637 deg

SMA: 7249.38 km

Apoapsis: 966.126 km

Periapsis: 776.363 km

RAAN: 297.2435 deg

Eccentricy: 0.01308821

Argument of periapsis: 22.2982 deg

Mean anomaly: 338.3807 deg

Mean motion: 14.0653812 rev/day

Mean motion (dot): 0.00006774 rev/day2

B* drag term: 0.0038066099 1/REarth

Two-line elements (TLE)

Creation date: Oct. 22, 2025, 4:10 a.m.

Reference frame: TEME

Reference center: EARTH

Epoch: Oct. 21, 2025, 7:23 p.m. UTC

TLE line 0: 0 FENGYUN 1C DEB

TLE line 1: 1 36691U 99025DZM 25294.80767148 .00006774 00000-0 38066-2 0 9992

TLE line 2: 2 36691 98.6370 297.2435 0130882 22.2982 338.3807 14.06538120588798

Live tracking on map

Real-time ground track for satellite FENGYUN 1C DEB.

In-orbit conjunctions

A list of the most updated potential collisions computed for object FENGYUN 1C DEB.

Target Orbit TCA Probability of collision Miss distance Type
COSMOS 1275 DEB LEO 2025-10-02 05:59:43 0.0001111456 197.0 (m) DEBRIS
CZ-6A DEB LEO 2025-04-28 09:20:24 0.0001000143 73.0 (m) DEBRIS
THORAD DELTA 1 DEB SSO 2024-11-13 14:47:26 0.0001760743 210.0 (m) DEBRIS
COSMOS 1428 LEO 2024-10-23 00:18:09 0.0004139244 562.0 (m) PAYLOAD
COSMOS 1275 DEB LEO 2024-09-27 08:09:17 0.0002693676 412.0 (m) DEBRIS

Associated space launch

Chinese polar orbiting meteorological satellite

FENGYUN 1C DEB was lifted into orbit during the mission ‘Long March 4B | Feng Yun 1C’, on board a Long March 4B space rocket.

The launch took place on May 10, 1999, 1:33 a.m. from Launch Complex 7.

For more information about the launch, click the button.

Launch to space Long March 4B | Feng Yun 1C
Long March 4B | Feng Yun 1C

Agency: N/A

Status: Launch Successful

Launch date: May 10, 1999, 1:33 a.m. UTC

Rocket: Long March 4B

Launch pad: Launch Complex 7

Location: Taiyuan Satellite Launch Center, People's Republic of China

...

Latest news about this satellite

There are no fresh news available about this satellite. Check back as we update our databases every day.


Newsletter sign-up

Weekly statistics, charts and insights to help you stay on top of the space industry.